This is the latest recevied weather packets stored in our database for station/object YO3FVR-WX. If no packets are shown the sender has not sent any weather packets the latest 10 day(s).
| Time | Temp. | Humidity | Pressure | Rain* | Wind** | Luminosity | Snow |
|---|---|---|---|---|---|---|---|
| 1777873964 | 11.11° C | 62% | 1011.8 hPa | 0 mm | - | - | - |
| 1777872761 | 10° C | 63% | 1012 hPa | 0 mm | - | - | - |
| 1777871561 | 9.44° C | 64% | 1012 hPa | 0 mm | - | - | - |
| 1777870361 | 9.44° C | 64% | 1012 hPa | 0 mm | - | - | - |
| 1777869132 | 8.89° C | 65% | 1012 hPa | 0 mm | - | - | - |
| 1777867932 | 8.33° C | 66% | 1012 hPa | 0 mm | - | - | - |
| 1777866701 | 7.22° C | 66% | 1012.1 hPa | 0 mm | - | - | - |
| 1777865472 | 7.22° C | 65% | 1012.3 hPa | 0 mm | - | - | - |
| 1777864271 | 7.78° C | 63% | 1012.3 hPa | 0 mm | - | - | - |
| 1777863042 | 8.33° C | 62% | 1012.3 hPa | 0 mm | - | - | - |
| 1777861842 | 8.33° C | 60% | 1012.5 hPa | 0 mm | - | - | - |
| 1777860612 | 8.89° C | 60% | 1012.7 hPa | 0 mm | - | - | - |
| 1777859411 | 9.44° C | 59% | 1012.8 hPa | 0 mm | - | - | - |
| 1777858183 | 9.44° C | 60% | 1012.9 hPa | 0 mm | - | - | - |
| 1777856982 | 8.33° C | 62% | 1013.1 hPa | 0 mm | - | - | - |
| 1777855753 | 8.33° C | 62% | 1013.2 hPa | 0 mm | - | - | - |
| 1777854524 | 8.33° C | 62% | 1013.3 hPa | 0 mm | - | - | - |
| 1777853322 | 8.33° C | 62% | 1013.3 hPa | 0 mm | - | - | - |
| 1777852098 | 8.33° C | 61% | 1013.4 hPa | 0 mm | - | - | - |
| 1777850891 | 8.89° C | 61% | 1013.4 hPa | 0 mm | - | - | - |
| 1777849691 | 9.44° C | 59% | 1013.5 hPa | 0 mm | - | - | - |
| 1777848461 | 10° C | 57% | 1013.6 hPa | 0 mm | - | - | - |
| 1777847232 | 10.56° C | 55% | 1013.6 hPa | 0 mm | - | - | - |
| 1777846032 | 11.11° C | 53% | 1013.9 hPa | 0 mm | - | - | - |
| 1777844832 | 11.67° C | 51% | 1014 hPa | 0 mm | - | - | - |
* Rain latest hour (hover to see other rain measurements)
** Current wind speed in m/s (hover to see current wind gust speed)